Overview Statistics Trail Chart Weather Telemetry Raw packets
 

This is the latest recevied weather packets stored in our database for station/object WY7ATH-2. If no packets are shown the sender has not sent any weather packets the latest 10 day(s).

<< 26 27 28 29 30 31 32 >>
Time Temp. Humidity Pressure Rain* Wind** Luminosity Snow
1787935414 32.78° C - - 20.07 mm 5.36 m/s, 301° - -
1787934220 30.56° C - - 20.07 mm 5.81 m/s, 262° - -
1787933623 30.56° C - - 20.07 mm 7.15 m/s, 318° - -
1787933024 30.56° C - - 20.07 mm 4.92 m/s, 276° - -
1787931829 30.56° C - - 16 mm 4.92 m/s, 257° - -
1787931232 29.44° C - - 16 mm 4.47 m/s, 302° - -
1787930634 30° C - - 16 mm 2.68 m/s, 278° - -
1787930037 30° C - - 16 mm 3.13 m/s, 245° - -
1787929437 28.89° C - - 16 mm 5.36 m/s, 250° - -
1787928840 28.33° C - - 9.4 mm 5.81 m/s, 270° - -
1787928243 28.33° C - - 9.4 mm 4.02 m/s, 255° - -
1787927646 28.89° C - - 9.4 mm 0 m/s - -
1787927049 26.67° C - - 9.4 mm 2.24 m/s, 240° - -
1787926452 25.56° C - - 9.4 mm 2.68 m/s, 236° - -
1787925851 24.44° C - - 9.4 mm 5.81 m/s, 255° - -
1787925327 24.44° C - - 1.27 mm 0.45 m/s, 262° - -
1787925254 24.44° C - - 1.27 mm 0.45 m/s, 262° - -
1787924657 23.33° C - - 1.27 mm 0.45 m/s, 245° - -
1787922868 20° C - - 1.27 mm 0.89 m/s, 225° - -
1787922273 17.78° C - - 1.27 mm 0 m/s - -
1787920475 16.11° C - - 0 mm 0 m/s - -
1787919878 15.56° C - - 0 mm 0 m/s - -
1787919283 15.56° C - - 0 mm 0 m/s - -
1787917485 14.44° C - - 0 mm 0 m/s - -
1787916888 13.89° C - - 0 mm 0 m/s - -

* Rain latest hour (hover to see other rain measurements)
** Current wind speed in m/s (hover to see current wind gust speed)